Weather History for Fort Myers, FL

Change the Weather History Date:

Monday, January 21, 2013

  Actual Average Record
Temperature  
Mean Temperature 70 °F 64 °F  
Max Temperature 77 °F 75 °F 86 °F (1954)
Min Temperature 62 °F 54 °F 32 °F (1971)
Degree Days  
Heating Degree Days 0 3  
Month to date heating degree days 8 82  
Since 1 July heating degree days 66 175  
Cooling Degree Days 5 3  
Month to date cooling degree days 146 62  
Year to date cooling degree days 146 62  
Growing Degree Days 19 (Base 50)    
Moisture  
Dew Point 62 °F    
Average Humidity 82    
Maximum Humidity 93    
Minimum Humidity 69    
Precipitation  
Precipitation 0.00 in 0.06 in 0.86 in (1988)
Month to date precipitation 0.46 1.29  
Year to date precipitation 0.46 1.29  
Sea Level Pressure  
Sea Level Pressure 30.06 in    
Wind  
Wind Speed 6 mph (NW)    
Max Wind Speed 15 mph    
Max Gust Speed 18 mph    
Visibility 10 miles    
Events      
T = Trace of Precipitation, MM = Missing Value Source: NWS Daily Summary

Daily Weather History Graph

Daily Weather History Graph

Search for Another Location

Airport:

Trip Planner

Search our weather history database for the weather conditions in past years. The results will help you decide how hot, cold, wet, or windy it might be!

Date:

Astronomy

Jan. 21, 2013 Rise Set
Actual Time 7:16 AM EST 6:01 PM EST
Civil Twilight 6:51 AM EST 6:26 PM EST
Nautical Twilight 6:23 AM EST 6:54 PM EST
Astronomical Twilight 5:55 AM EST 7:22 PM EST
Moon 1:42 PM EST (1/21) 2:42 AM EST (1/21)
Length of Visible Light 11h 34m
Length of Day
10h 45m
Waxing Gibbous, 75% of the Moon is Illuminated
Jan 21
Waxing Gibbous
Jan 26
Full
Feb 3
Last Quarter
Feb 10
New
Feb 17
First Quarter

Hourly Weather History & Observations

Time (EST) Temp. Dew Point Humidity Pressure Visibility Wind Dir Wind Speed Gust Speed Precip Events Conditions
12:53 AM 66.0 °F 62.1 °F 87% 30.06 in 10.0 mi ENE 5.8 mph - N/A   Overcast
1:53 AM 66.0 °F 62.1 °F 87% 30.06 in 10.0 mi NE 6.9 mph - N/A   Overcast
2:53 AM 64.9 °F 62.1 °F 90% 30.05 in 10.0 mi NE 5.8 mph - N/A   Mostly Cloudy
4:53 AM 64.0 °F 61.0 °F 90% 30.03 in 10.0 mi ENE 4.6 mph - N/A   Overcast
5:53 AM 64.0 °F 61.0 °F 90% 30.03 in 10.0 mi NE 3.5 mph - N/A   Overcast
7:53 AM 64.0 °F 61.0 °F 90% 30.06 in 10.0 mi ENE 3.5 mph - N/A   Overcast
8:32 AM 66.2 °F 60.8 °F 83% 30.07 in 10.0 mi Calm Calm - N/A   Overcast
8:53 AM 66.0 °F 61.0 °F 84% 30.09 in 10.0 mi Calm Calm - N/A   Overcast
9:53 AM 66.9 °F 63.0 °F 87% 30.10 in 10.0 mi SW 3.5 mph - N/A   Overcast
10:53 AM 70.0 °F 64.0 °F 81% 30.10 in 10.0 mi WSW 5.8 mph - N/A   Overcast
11:06 AM 69.8 °F 64.4 °F 83% 30.09 in 10.0 mi WNW 6.9 mph - N/A   Overcast
11:48 AM 71.6 °F 64.4 °F 78% 30.08 in 10.0 mi West 6.9 mph - N/A   Overcast
11:53 AM 71.1 °F 64.0 °F 78% 30.09 in 10.0 mi WSW 8.1 mph - N/A   Overcast
12:46 PM 71.6 °F 64.4 °F 78% 30.05 in 10.0 mi Variable 3.5 mph - N/A   Overcast
12:53 PM 73.0 °F 64.0 °F 73% 30.05 in 10.0 mi Variable 4.6 mph - N/A   Overcast
1:00 PM 71.6 °F 64.4 °F 78% 30.04 in 10.0 mi West 5.8 mph - N/A   Mostly Cloudy
1:53 PM 75.0 °F 64.0 °F 69% 30.02 in 10.0 mi Variable 4.6 mph - N/A   Partly Cloudy
2:53 PM 75.9 °F 64.0 °F 67% 30.01 in 10.0 mi Variable 6.9 mph - N/A   Scattered Clouds
3:53 PM 73.0 °F 64.0 °F 73% 30.01 in 10.0 mi WNW 10.4 mph - N/A   Partly Cloudy
4:53 PM 71.1 °F 63.0 °F 75% 30.02 in 10.0 mi West 11.5 mph - N/A   Partly Cloudy
5:53 PM 69.1 °F 62.1 °F 78% 30.04 in 10.0 mi WNW 11.5 mph - N/A   Partly Cloudy
6:53 PM 68.0 °F 62.1 °F 81% 30.05 in 10.0 mi WNW 12.7 mph - N/A   Clear
7:53 PM 66.0 °F 61.0 °F 84% 30.06 in 10.0 mi WNW 5.8 mph - N/A   Clear
8:53 PM 64.9 °F 61.0 °F 87% 30.06 in 10.0 mi NW 5.8 mph - N/A   Clear
9:53 PM 64.0 °F 61.0 °F 90% 30.07 in 10.0 mi NW 5.8 mph - N/A   Clear
10:53 PM 63.0 °F 60.1 °F 90% 30.08 in 10.0 mi NNW 8.1 mph - N/A   Clear
11:53 PM 62.1 °F 59.0 °F 90% 30.08 in 10.0 mi NNW 6.9 mph - N/A   Clear